Theta_e
325 326 326 326 324 322 321 322 321 320 318 315 315 315 315 316 316 317 314 315 315 314 315 315 315 318 320 322 322 321 320 318 316 318 316 316 317 317 316 315 314 314 314
329 327 326 324 323 322 322 322 321 320 318 314 314 314 314 314 315 314 314 313 312 313 313 314 315 315 317 317 320 320 320 318 317 316 316 317 317 315 316 314 313 314 313
330 327 324 324 322 321 321 321 320 319 316 315 314 314 314 313 313 312 312 311 312 312 312 314 314 315 316 316 319 321 320 318 317 317 316 320 319 316 314 314 314 314 313
327 324 323 322 321 321 320 320 318 317 315 315 314 314 314 313 312 312 312 311 311 311 312 314 314 315 315 315 317 318 319 319 317 317 316 317 317 320 319 314 314 313 313
325 323 322 321 320 319 318 317 316 316 315 313 313 312 312 312 312 312 312 312 310 311 313 314 315 315 315 315 317 317 319 318 318 317 318 318 317 316 317 318 316 314 312
322 321 320 321 319 318 317 315 315 314 313 313 312 312 311 313 313 313 312 312 311 311 313 314 314 315 316 316 316 316 318 317 318 317 317 317 317 317 316 317 316 315 313
321 322 322 321 318 316 315 314 313 312 311 311 312 312 312 312 312 312 312 311 311 311 313 313 314 314 314 314 315 315 316 316 316 316 316 317 315 315 315 316 314 314 312
321 321 320 319 317 314 313 313 312 311 311 311 312 312 312 311 310 310 310 310 310 311 312 313 313 314 314 314 314 313 314 315 316 316 316 315 314 313 315 315 314 313 312
322 322 320 317 313 314 313 311 311 311 310 311 311 310 309 309 308 308 308 309 310 310 311 312 312 312 312 312 312 312 313 313 315 316 315 314 313 314 316 315 313 311 314
322 319 316 314 314 312 312 311 311 311 310 310 309 308 308 307 307 307 308 307 308 310 310 311 311 311 312 311 311 310 308 311 312 313 312 313 313 314 314 314 312 312 312
319 316 315 314 312 312 312 311 311 310 310 309 308 308 307 306 306 305 305 306 307 309 309 309 307 308 310 310 310 307 309 308 310 313 313 314 313 312 314 312 313 313 311
317 315 313 312 311 310 310 310 310 309 308 307 308 307 304 305 306 306 305 305 305 307 308 308 308 308 308 310 310 310 310 310 311 312 313 312 311 312 312 312 313 312 310
316 313 312 310 309 309 308 308 308 307 308 308 308 305 304 305 305 305 305 305 306 306 307 307 308 308 309 309 308 309 309 309 310 310 311 312 312 312 312 313 313 311 310
313 313 310 308 308 308 307 307 308 307 308 307 306 306 307 307 307 306 304 306 306 306 307 307 308 308 308 307 309 309 309 309 309 309 310 311 311 310 310 311 310 309 309
313 310 309 308 308 308 308 308 307 308 308 308 308 306 305 308 306 306 307 307 307 307 307 307 307 308 307 304 306 309 309 310 310 310 311 311 309 307 307 309 310 309 309
311 310 309 309 308 308 307 308 308 308 309 308 308 308 307 307 306 307 307 308 308 308 308 308 308 309 307 305 305 308 309 309 309 310 310 310 308 308 308 309 308 308 309
310 309 310 308 308 308 307 308 308 308 309 309 309 309 308 307 307 307 307 307 307 306 305 306 307 308 307 305 305 307 308 309 309 309 309 310 310 309 308 309 311 311 310
311 310 309 309 308 308 308 308 309 309 309 308 308 308 309 308 307 309 309 309 309 309 307 307 306 307 306 305 306 306 306 307 308 310 311 311 311 310 310 312 312 311 310
310 310 309 309 309 308 309 309 309 309 309 309 309 310 310 310 311 310 310 310 311 308 308 309 310 309 307 307 307 309 309 310 311 312 310 312 308 308 309 312 312 312 312
311 310 309 309 308 308 309 309 310 310 310 310 310 310 311 311 310 309 308 309 309 309 310 311 311 310 308 307 308 310 309 312 313 311 308 303 305 308 310 313 313 312 312
310 310 309 308 308 308 309 309 310 310 310 310 310 311 312 312 311 311 311 311 311 312 312 313 313 312 311 308 309 310 313 312 310 309 309 308 306 306 307 308 311 310 310
310 309 309 309 309 309 309 310 312 310 312 311 311 312 312 312 313 312 312 311 312 313 313 313 312 313 313 310 309 309 310 312 312 311 311 310 310 311 312 311 311 312 313
311 310 310 310 309 309 310 311 311 311 311 311 312 312 313 312 313 313 310 311 312 312 312 312 312 311 311 310 309 311 311 313 313 311 310 310 310 311 312 311 310 311 312
310 310 310 311 311 311 312 311 312 311 312 313 313 313 312 313 312 310 308 305 306 308 311 311 310 309 307 304 303 306 309 311 312 312 312 310 310 310 309 310 310 310 310
310 311 310 311 312 311 312 312 312 312 313 313 312 312 313 313 311 307 306 305 301 301 303 304 307 305 305 301 300 301 303 306 308 309 310 310 309 310 309 309 309 308 308
311 311 311 312 311 312 312 313 313 313 313 312 313 312 312 312 312 311 307 304 302 300 299 298 299 301 297 298 299 301 302 304 307 309 310 309 309 309 308 308 308 308 306
Wind_Speed
10 10 8 9 9 11 11 12 13 14 16 16 14 14 14 12 11 7 9 11 9 14 14 15 14 11 16 13 13 13 11 13 14 14 14 17 12 8 9 6 5 6 7
11 11 8 10 9 7 7 11 13 14 15 17 14 13 15 12 10 5 13 8 13 14 16 16 16 15 17 17 14 14 13 13 9 11 15 7 3 6 10 6 6 0 7
9 8 7 5 5 6 8 12 14 14 14 16 16 16 16 14 16 17 18 18 15 14 15 15 14 15 15 16 11 11 12 13 12 11 9 3 2 7 9 12 5 2 6
9 8 4 7 7 8 10 10 11 13 15 16 19 16 18 18 17 14 13 16 13 12 15 11 14 14 15 16 11 9 9 12 13 6 8 13 10 3 1 3 4 4 4
8 6 22 18 5 6 11 14 12 14 17 17 19 15 17 18 16 16 16 15 14 11 11 10 12 12 12 13 11 9 7 9 8 7 6 6 7 7 5 4 4 5 6
10 10 3 13 8 12 15 17 16 18 19 18 16 15 17 17 18 16 15 16 16 15 10 10 12 10 9 9 9 7 7 8 9 8 4 5 4 4 4 3 3 6 5
1 1 6 16 13 13 13 19 21 19 20 21 18 19 18 17 16 17 16 18 17 15 15 13 11 10 9 8 9 9 7 8 9 9 4 3 6 7 0 2 3 5 5
1 4 10 13 15 16 15 13 17 16 18 17 19 17 16 16 16 17 17 16 18 15 14 11 8 8 8 9 10 8 9 8 6 6 2 2 2 4 4 2 6 7 2
4 10 9 12 13 11 17 14 13 16 19 18 15 15 17 18 19 18 16 15 15 16 14 9 8 8 9 10 9 10 11 8 6 5 2 2 3 3 3 3 5 9 5
12 7 10 10 8 18 17 14 15 19 19 16 17 18 19 18 18 16 15 14 16 12 10 10 10 8 9 9 9 10 12 9 7 5 2 2 3 5 3 3 6 6 7
7 7 7 18 22 18 17 18 18 17 16 15 16 15 16 20 18 17 14 13 13 10 9 9 11 10 8 7 6 8 8 9 8 5 3 3 1 4 4 6 4 5 4
11 13 17 20 18 18 19 20 20 16 15 16 15 16 21 19 15 17 14 11 10 9 9 9 8 9 11 8 6 4 4 5 6 7 7 7 7 7 8 8 11 8 8
10 17 18 18 17 18 16 17 15 14 15 15 17 22 20 15 13 14 15 12 9 7 10 10 10 8 8 9 9 10 9 7 7 6 9 11 11 12 12 11 10 9 8
13 14 15 14 14 15 15 14 16 17 13 18 19 18 16 14 13 12 12 11 8 8 9 9 10 9 9 9 10 9 7 8 6 6 7 8 10 10 10 10 9 10 8
12 12 11 11 15 13 13 15 14 13 12 14 12 18 17 16 18 17 12 10 10 9 8 8 7 8 10 11 11 11 10 8 7 9 10 10 9 9 7 6 8 6 6
12 11 10 14 13 11 12 12 13 12 15 17 14 12 15 16 16 16 15 13 14 13 13 12 11 11 9 11 10 9 8 8 7 8 8 8 8 7 9 8 7 5 6
9 7 11 11 11 13 11 10 10 13 13 15 15 11 10 14 13 13 13 14 14 14 15 12 11 11 10 10 10 9 8 7 6 7 8 9 8 9 8 8 8 5 6
8 9 10 10 10 10 8 8 10 11 12 13 15 15 14 14 14 11 12 11 10 11 11 11 11 10 11 10 11 12 9 8 8 7 7 8 9 5 6 7 3 4 4
7 8 8 9 8 7 8 9 10 10 11 12 12 14 12 12 13 11 10 10 9 9 9 10 10 11 11 11 13 10 8 9 8 8 7 6 8 4 11 12 8 8 6
8 7 9 7 7 7 8 10 11 10 11 11 11 11 11 13 11 15 14 10 12 11 10 9 9 14 15 12 9 6 4 5 7 9 8 9 8 7 8 10 11 9 11
5 4 6 6 5 6 9 11 10 10 9 9 8 7 6 7 8 9 9 8 7 6 5 8 11 13 14 12 9 5 2 8 5 12 10 7 8 9 11 11 10 12 12
4 3 4 2 4 6 9 10 9 7 6 6 5 5 7 9 9 11 9 10 8 7 9 11 12 15 12 14 14 13 12 13 12 13 9 7 9 8 8 10 11 8 13
4 2 3 1 3 6 6 6 6 4 7 5 5 7 9 11 10 10 14 15 15 17 17 12 10 14 16 17 19 14 8 11 10 8 7 7 8 6 4 7 9 13 10
0 3 3 0 5 5 5 5 3 6 6 5 5 6 11 10 10 15 17 18 17 18 18 16 16 15 15 15 15 14 15 9 6 9 9 5 5 5 8 11 13 13 14
2 2 2 3 4 4 5 6 6 4 3 3 6 5 7 7 8 11 12 13 17 16 14 13 12 14 13 14 16 18 16 13 10 15 8 12 12 12 13 14 15 15 16
1 0 0 4 3 4 5 5 4 4 5 7 4 7 6 3 6 5 8 12 15 17 16 16 12 10 14 13 12 10 13 8 9 13 11 11 12 13 14 15 16 17 18
Wind_Direction
151 123 129 117 106 68 30 26 25 20 13 8 1 357 347 341 335 1 349 327 322 324 310 307 308 285 264 259 250 243 233 243 240 258 269 257 242 254 262 254 303 331 311
147 126 119 87 80 63 38 16 18 15 13 7 3 357 338 331 332 339 338 25 343 327 320 329 310 313 308 295 276 253 244 239 250 259 290 292 144 237 245 245 265 83 302
90 117 81 108 70 55 24 15 13 9 17 4 355 353 332 335 358 338 340 342 336 321 306 302 297 298 294 295 295 278 236 241 242 241 267 283 286 220 192 236 236 289 297
88 42 106 37 37 15 8 22 7 7 3 358 348 349 342 355 342 342 339 329 314 308 311 309 298 300 293 296 305 285 247 253 272 239 274 287 321 316 292 234 149 248 304
109 49 26 5 324 3 25 13 354 354 359 352 348 358 344 327 328 326 327 335 327 319 294 313 305 308 301 301 307 300 265 268 269 281 278 261 274 278 302 281 320 278 280
53 47 10 292 30 9 10 353 355 7 353 351 358 338 329 332 325 324 326 334 328 325 322 327 314 316 317 326 328 320 294 279 264 266 265 262 253 241 254 286 308 290 271
60 72 272 303 39 11 360 341 11 0 5 353 341 340 341 335 335 339 339 337 337 331 337 330 327 335 336 345 347 345 333 290 268 263 268 233 244 240 166 317 301 268 292
253 281 28 7 1 2 333 1 4 4 353 350 349 350 352 348 341 338 335 332 328 335 332 338 347 360 14 20 10 1 344 321 300 283 267 259 266 331 7 300 308 302 330
288 22 21 11 353 326 13 32 13 343 342 4 354 353 347 345 336 330 327 326 325 329 338 343 6 23 37 43 34 27 21 26 31 39 84 308 359 3 338 307 285 313 324
51 41 19 339 321 16 46 16 350 351 5 360 354 349 353 359 352 346 344 345 342 343 4 29 32 38 42 42 45 41 42 43 38 31 25 315 335 345 311 276 316 342 330
42 358 336 18 24 20 355 354 354 352 9 356 357 2 6 359 354 1 354 352 355 8 11 35 37 34 27 29 37 42 34 24 14 351 321 299 319 2 345 328 338 354 2
16 3 3 33 17 6 357 3 9 12 357 357 12 13 5 349 357 360 352 351 352 3 5 22 22 21 16 356 357 9 5 352 348 1 15 27 14 349 13 351 7 23 36
4 14 13 21 13 7 2 10 5 2 0 10 23 10 0 356 357 0 2 9 13 14 6 354 5 12 11 5 349 341 343 341 329 340 351 1 26 25 11 14 20 35 17
11 25 28 22 0 8 7 356 9 12 13 29 13 359 0 357 3 6 7 15 14 4 352 4 21 20 22 19 4 9 357 354 349 0 356 32 26 16 5 25 24 15 5
24 29 34 356 7 13 9 14 11 13 7 11 20 13 4 11 17 14 11 24 17 20 21 33 36 38 43 21 11 7 24 21 30 20 44 42 31 23 27 21 18 19 352
27 54 3 11 16 6 18 5 16 10 10 28 24 13 16 21 22 21 21 25 28 28 31 25 23 31 30 15 28 28 21 28 32 28 27 24 20 30 34 38 29 16 337
35 26 15 10 9 28 17 21 12 15 13 17 16 20 31 27 24 22 24 28 27 31 33 30 32 33 29 30 37 56 48 54 56 49 42 45 35 41 37 18 15 351 4
43 17 11 20 21 27 26 18 17 22 16 15 8 5 26 15 18 23 25 25 26 30 19 23 27 33 29 46 57 54 64 65 59 57 42 36 38 41 3 329 352 63 42
29 16 6 23 44 33 23 10 359 14 4 9 10 358 17 23 23 38 39 25 31 24 22 30 32 44 41 62 64 59 54 56 52 45 38 21 46 31 2 4 55 58 38
36 16 30 63 44 24 5 7 357 6 6 5 10 358 28 41 44 49 49 49 54 60 58 58 48 58 55 64 51 28 49 67 85 77 64 57 59 48 21 9 10 11 3
39 29 54 57 29 8 356 354 354 0 359 6 356 10 37 56 52 32 36 19 2 5 21 48 50 60 63 67 63 57 86 2 21 81 74 44 20 12 8 2 344 333 337
44 22 69 47 14 4 351 344 3 0 18 34 38 62 58 43 35 42 38 34 23 41 58 68 76 73 63 57 57 63 48 37 27 50 43 14 18 10 8 7 349 340 323
65 29 67 337 15 2 351 0 29 20 74 81 75 51 51 54 38 34 40 41 36 44 40 57 87 80 44 35 30 13 25 29 39 43 38 29 16 347 351 355 360 347 2
73 69 95 19 23 5 2 42 56 95 69 60 76 65 63 44 38 46 51 40 27 17 27 27 28 47 41 35 32 19 14 353 20 353 301 326 300 336 359 17 23 16 5
78 100 146 38 37 31 66 72 74 64 56 86 57 52 78 71 84 69 62 58 52 45 37 27 36 23 18 6 10 14 13 9 345 333 13 21 19 18 16 14 14 17 5
108 204 211 78 88 81 86 75 58 58 34 30 39 53 12 344 24 146 104 83 72 60 47 46 47 25 21 17 17 22 26 5 352 346 22 20 17 16 13 11 11 12 10